This is the latest recevied weather packets stored in our database for station/object KO4ZGL-13. If no packets are shown the sender has not sent any weather packets the latest 10 day(s).
| Time | Temp. | Humidity | Pressure | Rain* | Wind** | Luminosity | Snow |
|---|---|---|---|---|---|---|---|
| 1787593552 | 36.67° C | 58% | 1013.9 hPa | 0 mm | - | 671 W/m² | - |
| 1787593247 | 37.22° C | 58% | 1013.9 hPa | 0 mm | - | 658 W/m² | - |
| 1787592942 | 36.67° C | 56% | 1014 hPa | 0 mm | - | 634 W/m² | - |
| 1787592638 | 36.11° C | 57% | 1014.3 hPa | 0 mm | - | 642 W/m² | - |
| 1787592337 | 36.11° C | 62% | 1014.5 hPa | 0 mm | - | 644 W/m² | - |
| 1787592032 | 36.67° C | 60% | 1014.5 hPa | 0 mm | - | 663 W/m² | - |
| 1787591727 | 36.67° C | 56% | 1014.6 hPa | 0 mm | - | 655 W/m² | - |
| 1787591423 | 36.67° C | 60% | 1014.5 hPa | 0 mm | - | 661 W/m² | - |
| 1787591119 | 36.67° C | 63% | 1014.5 hPa | 0 mm | - | 671 W/m² | - |
| 1787590816 | 35.56° C | 61% | 1014.4 hPa | 0 mm | - | 670 W/m² | - |
| 1787590510 | 35.56° C | 59% | 1014.7 hPa | 0 mm | - | 678 W/m² | - |
| 1787590205 | 35.56° C | 60% | 1014.7 hPa | 0 mm | - | 680 W/m² | - |
| 1787589900 | 35° C | 61% | 1014.8 hPa | 0 mm | - | 658 W/m² | - |
| 1787589596 | 35° C | 66% | 1014.9 hPa | 0 mm | - | 647 W/m² | - |
| 1787589290 | 35.56° C | 63% | 1014.8 hPa | 0 mm | - | 670 W/m² | - |
| 1787588986 | 35.56° C | 62% | 1015 hPa | 0 mm | - | 668 W/m² | - |
| 1787588682 | 35.56° C | 60% | 1015.2 hPa | 0 mm | - | 661 W/m² | - |
| 1787588377 | 35° C | 59% | 1015.2 hPa | 0 mm | - | 669 W/m² | - |
| 1787588072 | 35° C | 59% | 1015.1 hPa | 0 mm | - | 682 W/m² | - |
| 1787587768 | 35.56° C | 61% | 1015.4 hPa | 0 mm | - | 687 W/m² | - |
| 1787587463 | 35° C | 62% | 1015.3 hPa | 0 mm | - | 691 W/m² | - |
| 1787587162 | 35° C | 67% | 1015.5 hPa | 0 mm | - | 698 W/m² | - |
| 1787586862 | 34.44° C | 65% | 1015.3 hPa | 0 mm | - | 695 W/m² | - |
| 1787586557 | 34.44° C | 69% | 1015.6 hPa | 0 mm | - | 699 W/m² | - |
| 1787586252 | 34.44° C | 69% | 1015.6 hPa | 0 mm | - | 712 W/m² | - |
* Rain latest hour (hover to see other rain measurements)
** Current wind speed in m/s (hover to see current wind gust speed)